Regional Weather Roundup
Issued by NWS

Home | Current Version | Previous Version | Text Only | Print | Product List | Glossary Off
Versions: 1 2 3 4 5 6 7 8 9 10 11 12 13 14 15 16 17 18 19 20 21 22 23 24 25 26 27 28

000
ASUS45 KPSR 310110
RWRAZ

ARIZONA HOURLY REGIONAL WEATHER ROUNDUP
NATIONAL WEATHER SERVICE PHOENIX AZ
600 PM MST TUE AUG 30 2016

NOTE: FAIR INDICATES FEW OR NO CLOUDS BELOW 12,000 FEET WITH NO
SIGNIFICANT WEATHER AND/OR OBSTRUCTIONS TO VISIBILITY.

AZZ001>003-036-310200-
NORTHWEST ARIZONA

CITY           SKY/WX    TMP DP  RH WIND       PRES   REMARKS
BULLHEAD CITY  SUNNY    108  41  10 SW10      29.72F HX 102
KINGMAN        SUNNY     95  40  14 S5        29.98S
$$

AZZ004>008-015-016-018-310200-
NORTH CENTRAL ARIZONA

CITY           SKY/WX    TMP DP  RH WIND       PRES   REMARKS
GRAND CANYON   SUNNY     80  34  19 NE5       30.27S
PRESCOTT       MOSUNNY   85  44  23 CALM      30.12F
FLAGSTAFF      MOSUNNY   74  39  28 E3        30.28S
PAYSON         MOSUNNY   82  48  30 S6G12     30.16S
PAGE           SUNNY     92  29  10 E9        30.06F
$$

AZZ009>014-017-310200-
NORTHEAST ARIZONA

CITY           SKY/WX    TMP DP  RH WIND       PRES   REMARKS
WINSLOW        PTCLDY    88  41  19 NW6       30.10F
SAINT JOHNS    PTCLDY    81  43  26 CALM      30.16F
WINDOW ROCK    CLEAR     77  41  27 CALM      30.27S
SHOW LOW       PTCLDY    73  46  38 S8        30.24R
$$

AZZ023-310200-
GREATER PHOENIX AREA

CITY           SKY/WX    TMP DP  RH WIND       PRES   REMARKS
PHOENIX        PTSUNNY   99  54  22 E12       29.76S
BUCKEYE        MOSUNNY  104  46  14 SE5       29.77F HX 100
GLENDALE       MOSUNNY  106  48  14 CALM      29.77F HX 102
LUKE AFB       MOSUNNY  105  49  15 SE5       29.75F HX 101
DEER VALLEY    PTSUNNY   97  51  21 E7G20     29.80S
SCOTTSDALE     PTSUNNY   96  53  23 E6        29.83R
MESA-FALCON    LGT RAIN N/A N/A N/A S12       29.79S
MESA-GATEWAY   PTSUNNY   95  54  24 N16       29.81F
CHANDLER       PTSUNNY   99  54  22 NE14      29.79S
$$

AZZ027-028-310200-
SOUTHWEST MARICOPA COUNTY AND PINAL COUNTY

CITY           SKY/WX    TMP DP  RH WIND       PRES   REMARKS
CASA GRANDE    MOSUNNY   99  52  20 NE20      29.83S
GILA BEND      MOSUNNY  107  41  11 NE12      29.72S HX 101
$$

AZZ503-504-507>509-310200-
SOUTHEAST ARIZONA

CITY           SKY/WX    TMP DP  RH WIND       PRES   REMARKS
TUCSON         PTCLDY    98  49  18 N8        29.90S
DAVIS-MONTHAN  CLEAR     96  48  19 NE14      29.88F
RYAN FIELD     CLEAR     95  48  20 N6        29.88F
NOGALES        LGT RAIN  74  60  61 S8        29.99S
SIERRA VISTA   MOCLDY    85  48  27 VRB3      30.08S
DOUGLAS        CLEAR     84  53  34 E16       30.04R
SAFFORD        PTCLDY    88  51  28 E12       29.97F
$$

AZZ020-021-025-026-031-310200-
SOUTHWEST ARIZONA

CITY           SKY/WX    TMP DP  RH WIND       PRES   REMARKS
YUMA           MOSUNNY  111  41   9 CALM      29.66F HX 105
$$

CAZ031-033-041-043-047-048-061-310200-
SOUTHERN CALIFORNIA

CITY           SKY/WX    TMP DP  RH WIND       PRES   REMARKS
DOWNTOWN L.A.  SUNNY     78  64  61 W6        29.78S
L.A. AIRPORT   MOSUNNY   73  65  75 W13       29.79F
SAN DIEGO      MOSUNNY   72  64  76 S8        29.83S
BURBANK        SUNNY     87  64  46 SE13      29.78S
ONTARIO        MOSUNNY   91  60  35 W9        29.78S
RIVERSIDE      SUNNY     93  53  25 W10       29.79R
PALM SPRINGS   MOSUNNY  110  40   9 NE7       29.69R HX 104
EL CENTRO NAS  MOSUNNY  111  37   8 E5        29.66S HX 104
IMPERIAL       MOSUNNY  112  45  10 E7        29.63F HX 107
BLYTHE         MOSUNNY  109  39   9 CALM      29.69S HX 103
NEEDLES          N/A    110  41   9 VRB3      29.74F HX 104
$$

NVZ020-UTZ003-310200-
SOUTHERN NEVADA-UTAH

CITY           SKY/WX    TMP DP  RH WIND       PRES   REMARKS
LAS VEGAS      MOSUNNY  103  31   8 SE6       29.82F
SALT LAKE CITY PTSUNNY   95  34  11 NW13      30.01S
$$

NMZ009-TXZ055-310200-
NEW MEXICO-WEST TEXAS

CITY           SKY/WX    TMP DP  RH WIND       PRES   REMARKS
ALBUQUERQUE    CLOUDY    76  55  48 E21       30.21S
EL PASO        MOCLDY    75  64  68 E9        30.11R
$$


........................KEY........................
SKY/WX - SKY CONDITION/WEATHER
TMP    - TEMPERATURE IN FAHRENHEIT
DP     - DEW POINT IN FAHRENHEIT
RH     - RELATIVE HUMIDITY IN PERCENT
WIND   - DIRECTION AND SPEED IN MILES PER HOUR (MPH)
VRB    - VARIABLE WIND DIRECTION
PRES   - MEAN SEA LEVEL PRESSURE IN INCHES OF MERCURY
         F - FALLING PRESSURE   R - RISING PRESSURE
         S - STEADY PRESSURE
VSB    - VISIBILITY IN MILES
HX     - HEAT INDEX IN FAHRENHEIT
WCI    - WIND CHILL INDEX IN FAHRENHEIT
TC     - TEMPERATURE IN CELSIUS WHICH IS ALSO KNOWN AS
         TEMPERATURE IN CENTIGRADE
AFB    - AIR FORCE BASE
         LUKE AFB IS LUKE AIR FORCE BASE
         DAVIS-MONTHAN IS DAVIS-MONTHAN AIR FORCE BASE
NAS    - NAVAL AIR STATION
         EL CENTRO NAS IS EL CENTRO NAVAL AIR STATION
N/A    - NOT AVAILABLE





USA.gov is the U.S. government's official web portal to all federal, state and local government web resources and services.